owner,sensor,date,latitude,longitude,vertical_datum,wind_speed,wind_to_direction,wind_speed_of_gust,qcFlag 
DISL,ioos:station:DISL:CATA:1,2017-05-01T00:00:00Z,30.3085,-88.1395,0.0,1.58,135.1,-999.0,'1111122,1111122,1111122' 
DISL,ioos:station:DISL:CATA:1,2017-05-01T00:30:00Z,30.3085,-88.1395,0.0,5.18,73.24,-999.0,'1111122,1111122,1111122' 
DISL,ioos:station:DISL:CATA:1,2017-05-01T01:00:00Z,30.3085,-88.1395,0.0,4.26,353.0,-999.0,'1111122,1111122,1111122' 
DISL,ioos:station:DISL:CATA:1,2017-05-01T01:30:00Z,30.3085,-88.1395,0.0,1.12,51.72,-999.0,'1111122,1111122,1111122' 
DISL,ioos:station:DISL:CATA:1,2017-05-01T02:00:00Z,30.3085,-88.1395,0.0,4.89,103.3,-999.0,'1111122,1111122,1111122' 
DISL,ioos:station:DISL:CATA:1,2017-05-01T02:30:00Z,30.3085,-88.1395,0.0,9.11,128.4,-999.0,'1111122,1111122,1111122' 
DISL,ioos:station:DISL:CATA:1,2017-05-01T03:00:00Z,30.3085,-88.1395,0.0,10.3,139.3,-999.0,'1111122,1111122,1111122' 
DISL,ioos:station:DISL:CATA:1,2017-05-01T03:30:00Z,30.3085,-88.1395,0.0,12.18,145.0,-999.0,'1111122,1111122,1111122' 
DISL,ioos:station:DISL:CATA:1,2017-05-01T04:00:00Z,30.3085,-88.1395,0.0,10.72,148.9,-999.0,'1111122,1111122,1111122' 
DISL,ioos:station:DISL:CATA:1,2017-05-01T04:30:00Z,30.3085,-88.1395,0.0,12.02,160.5,-999.0,'1111122,1111122,1111122' 
DISL,ioos:station:DISL:CATA:1,2017-05-01T05:00:00Z,30.3085,-88.1395,0.0,13.09,161.3,-999.0,'1111122,1111122,1111122' 
DISL,ioos:station:DISL:CATA:1,2017-05-01T05:30:00Z,30.3085,-88.1395,0.0,14.56,184.1,-999.0,'1111122,1111122,1111122' 
DISL,ioos:station:DISL:CATA:1,2017-05-01T06:00:00Z,30.3085,-88.1395,0.0,15.28,171.0,-999.0,'1111122,1111122,1111122' 
DISL,ioos:station:DISL:CATA:1,2017-05-01T06:30:00Z,30.3085,-88.1395,0.0,16.01,162.6,-999.0,'1111122,1111122,1111122' 
DISL,ioos:station:DISL:CATA:1,2017-05-01T07:00:00Z,30.3085,-88.1395,0.0,12.57,147.8,-999.0,'1111122,1111122,1111122' 
DISL,ioos:station:DISL:CATA:1,2017-05-01T07:30:00Z,30.3085,-88.1395,0.0,12.55,211.4,-999.0,'1111122,1111122,1111122' 
DISL,ioos:station:DISL:CATA:1,2017-05-01T08:00:00Z,30.3085,-88.1395,0.0,11.45,224.4,-999.0,'1111122,1111122,1111122' 
DISL,ioos:station:DISL:CATA:1,2017-05-01T08:30:00Z,30.3085,-88.1395,0.0,13.07,321.2,-999.0,'1111122,1111122,1111122' 
DISL,ioos:station:DISL:CATA:1,2017-05-01T09:00:00Z,30.3085,-88.1395,0.0,9.94,337.9,-999.0,'1111122,1111122,1111122' 
DISL,ioos:station:DISL:CATA:1,2017-05-01T09:30:00Z,30.3085,-88.1395,0.0,6.71,342.2,-999.0,'1111122,1111122,1111122' 
DISL,ioos:station:DISL:CATA:1,2017-05-01T10:00:00Z,30.3085,-88.1395,0.0,4.22,14.3,-999.0,'1111122,1111122,1111122' 
DISL,ioos:station:DISL:CATA:1,2017-05-01T10:30:00Z,30.3085,-88.1395,0.0,4.52,0.685,-999.0,'1111122,1111122,1111122' 
DISL,ioos:station:DISL:CATA:1,2017-05-01T11:00:00Z,30.3085,-88.1395,0.0,3.05,34.47,-999.0,'1111122,1111122,1111122' 
DISL,ioos:station:DISL:CATA:1,2017-05-01T11:30:00Z,30.3085,-88.1395,0.0,2.88,1.17,-999.0,'1111122,1111122,1111122' 
DISL,ioos:station:DISL:CATA:1,2017-05-01T12:00:00Z,30.3085,-88.1395,0.0,2.95,6.641,-999.0,'1111122,1111122,1111122' 
DISL,ioos:station:DISL:CATA:1,2017-05-01T12:30:00Z,30.3085,-88.1395,0.0,3.39,352.7,-999.0,'1111122,1111122,1111122' 
DISL,ioos:station:DISL:CATA:1,2017-05-01T13:00:00Z,30.3085,-88.1395,0.0,2.67,1.493,-999.0,'1111122,1111122,1111122' 
DISL,ioos:station:DISL:CATA:1,2017-05-01T13:30:00Z,30.3085,-88.1395,0.0,3.82,0.206,-999.0,'1111122,1111122,1111122' 
DISL,ioos:station:DISL:CATA:1,2017-05-01T14:00:00Z,30.3085,-88.1395,0.0,4.51,358.4,-999.0,'1111122,1111122,1111122' 
DISL,ioos:station:DISL:CATA:1,2017-05-01T14:30:00Z,30.3085,-88.1395,0.0,3.28,3.65,-999.0,'1111122,1111122,1111122' 
DISL,ioos:station:DISL:CATA:1,2017-05-01T15:00:00Z,30.3085,-88.1395,0.0,3.35,349.1,-999.0,'1111122,1111122,1111122' 
DISL,ioos:station:DISL:CATA:1,2017-05-01T15:30:00Z,30.3085,-88.1395,0.0,4.12,358.8,-999.0,'1111122,1111122,1111122' 
DISL,ioos:station:DISL:CATA:1,2017-05-01T16:00:00Z,30.3085,-88.1395,0.0,2.56,42.74,-999.0,'1111122,1111122,1111122' 
DISL,ioos:station:DISL:CATA:1,2017-05-01T16:30:00Z,30.3085,-88.1395,0.0,2.5,351.2,-999.0,'1111122,1111122,1111122' 
DISL,ioos:station:DISL:CATA:1,2017-05-01T17:00:00Z,30.3085,-88.1395,0.0,3.94,348.0,-999.0,'1111122,1111122,1111122' 
DISL,ioos:station:DISL:CATA:1,2017-05-01T17:30:00Z,30.3085,-88.1395,0.0,3.13,324.3,-999.0,'1111122,1111122,1111122' 
DISL,ioos:station:DISL:CATA:1,2017-05-01T18:00:00Z,30.3085,-88.1395,0.0,3.5,122.5,-999.0,'1111122,1111122,1111122' 
DISL,ioos:station:DISL:CATA:1,2017-05-01T18:30:00Z,30.3085,-88.1395,0.0,2.43,124.2,-999.0,'1111122,1111122,1111122' 
DISL,ioos:station:DISL:CATA:1,2017-05-01T19:00:00Z,30.3085,-88.1395,0.0,4.04,131.4,-999.0,'1111122,1111122,1111122' 
DISL,ioos:station:DISL:CATA:1,2017-05-01T19:30:00Z,30.3085,-88.1395,0.0,3.39,140.1,-999.0,'1111122,1111122,1111122' 
DISL,ioos:station:DISL:CATA:1,2017-05-01T20:00:00Z,30.3085,-88.1395,0.0,2.85,194.6,-999.0,'1111122,1111122,1111122' 
DISL,ioos:station:DISL:CATA:1,2017-05-01T20:30:00Z,30.3085,-88.1395,0.0,3.99,196.8,-999.0,'1111122,1111122,1111122' 
DISL,ioos:station:DISL:CATA:1,2017-05-01T21:00:00Z,30.3085,-88.1395,0.0,4.39,204.6,-999.0,'1111122,1111122,1111122' 
DISL,ioos:station:DISL:CATA:1,2017-05-01T21:30:00Z,30.3085,-88.1395,0.0,4.39,227.3,-999.0,'1111122,1111122,1111122' 
DISL,ioos:station:DISL:CATA:1,2017-05-01T22:00:00Z,30.3085,-88.1395,0.0,4.31,241.2,-999.0,'1111122,1111122,1111122' 
DISL,ioos:station:DISL:CATA:1,2017-05-01T22:30:00Z,30.3085,-88.1395,0.0,5.02,257.5,-999.0,'1111122,1111122,1111122' 
DISL,ioos:station:DISL:CATA:1,2017-05-01T23:00:00Z,30.3085,-88.1395,0.0,5.13,251.4,-999.0,'1111122,1111122,1111122' 
DISL,ioos:station:DISL:CATA:1,2017-05-01T23:30:00Z,30.3085,-88.1395,0.0,4.95,262.2,-999.0,'1111122,1111122,1111122' 
DISL,ioos:station:DISL:CATA:1,2017-05-02T00:00:00Z,30.3085,-88.1395,0.0,5.32,266.2,-999.0,'1111122,1111122,1111122' 
DISL,ioos:station:DISL:CATA:1,2017-05-02T00:30:00Z,30.3085,-88.1395,0.0,5.21,265.9,-999.0,'1111122,1111122,1111122' 
DISL,ioos:station:DISL:CATA:1,2017-05-02T01:00:00Z,30.3085,-88.1395,0.0,5.51,261.3,-999.0,'1111122,1111122,1111122' 
DISL,ioos:station:DISL:CATA:1,2017-05-02T01:30:00Z,30.3085,-88.1395,0.0,4.42,268.8,-999.0,'1111122,1111122,1111122' 
DISL,ioos:station:DISL:CATA:1,2017-05-02T02:00:00Z,30.3085,-88.1395,0.0,4.94,270.9,-999.0,'1111122,1111122,1111122' 
DISL,ioos:station:DISL:CATA:1,2017-05-02T02:30:00Z,30.3085,-88.1395,0.0,5.31,273.3,-999.0,'1111122,1111122,1111122' 
DISL,ioos:station:DISL:CATA:1,2017-05-02T03:00:00Z,30.3085,-88.1395,0.0,5.15,275.4,-999.0,'1111122,1111122,1111122' 
DISL,ioos:station:DISL:CATA:1,2017-05-02T03:30:00Z,30.3085,-88.1395,0.0,4.21,280.4,-999.0,'1111122,1111122,1111122' 
DISL,ioos:station:DISL:CATA:1,2017-05-02T04:00:00Z,30.3085,-88.1395,0.0,4.09,277.6,-999.0,'1111122,1111122,1111122' 
DISL,ioos:station:DISL:CATA:1,2017-05-02T04:30:00Z,30.3085,-88.1395,0.0,3.63,282.8,-999.0,'1111122,1111122,1111122' 
DISL,ioos:station:DISL:CATA:1,2017-05-02T05:00:00Z,30.3085,-88.1395,0.0,2.23,305.2,-999.0,'1111122,1111122,1111122' 
DISL,ioos:station:DISL:CATA:1,2017-05-02T05:30:00Z,30.3085,-88.1395,0.0,1.33,339.6,-999.0,'1111122,1111122,1111122' 
DISL,ioos:station:DISL:CATA:1,2017-05-02T06:00:00Z,30.3085,-88.1395,0.0,0.95,342.1,-999.0,'1111122,1111122,1111122' 
DISL,ioos:station:DISL:CATA:1,2017-05-02T06:30:00Z,30.3085,-88.1395,0.0,0.89,343.2,-999.0,'1111122,1111122,1111122' 
DISL,ioos:station:DISL:CATA:1,2017-05-02T07:00:00Z,30.3085,-88.1395,0.0,1.49,0.722,-999.0,'1111122,1111122,1111122' 
DISL,ioos:station:DISL:CATA:1,2017-05-02T07:30:00Z,30.3085,-88.1395,0.0,2.27,359.9,-999.0,'1111122,1111122,1111122' 
DISL,ioos:station:DISL:CATA:1,2017-05-02T08:00:00Z,30.3085,-88.1395,0.0,2.6,359.7,-999.0,'1111122,1111122,1111122' 
DISL,ioos:station:DISL:CATA:1,2017-05-02T08:30:00Z,30.3085,-88.1395,0.0,2.49,0.109,-999.0,'1111122,1111122,1111122' 
DISL,ioos:station:DISL:CATA:1,2017-05-02T09:00:00Z,30.3085,-88.1395,0.0,2.64,350.1,-999.0,'1111122,1111122,1111122' 
DISL,ioos:station:DISL:CATA:1,2017-05-02T09:30:00Z,30.3085,-88.1395,0.0,2.58,5.023,-999.0,'1111122,1111122,1111122' 
DISL,ioos:station:DISL:CATA:1,2017-05-02T10:00:00Z,30.3085,-88.1395,0.0,2.31,18.19,-999.0,'1111122,1111122,1111122' 
DISL,ioos:station:DISL:CATA:1,2017-05-02T10:30:00Z,30.3085,-88.1395,0.0,1.7,15.11,-999.0,'1111122,1111122,1111122' 
DISL,ioos:station:DISL:CATA:1,2017-05-02T11:00:00Z,30.3085,-88.1395,0.0,1.84,43.77,-999.0,'1111122,1111122,1111122' 
DISL,ioos:station:DISL:CATA:1,2017-05-02T11:30:00Z,30.3085,-88.1395,0.0,1.74,43.46,-999.0,'1111122,1111122,1111122' 
DISL,ioos:station:DISL:CATA:1,2017-05-02T12:00:00Z,30.3085,-88.1395,0.0,1.63,36.6,-999.0,'1111122,1111122,1111122' 
DISL,ioos:station:DISL:CATA:1,2017-05-02T12:30:00Z,30.3085,-88.1395,0.0,1.79,58.42,-999.0,'1111122,1111122,1111122' 
DISL,ioos:station:DISL:CATA:1,2017-05-02T13:00:00Z,30.3085,-88.1395,0.0,2.47,93.6,-999.0,'1111122,1111122,1111122' 
DISL,ioos:station:DISL:CATA:1,2017-05-02T13:30:00Z,30.3085,-88.1395,0.0,2.4,98.8,-999.0,'1111122,1111122,1111122' 
DISL,ioos:station:DISL:CATA:1,2017-05-02T14:00:00Z,30.3085,-88.1395,0.0,2.3,93.4,-999.0,'1111122,1111122,1111122' 
DISL,ioos:station:DISL:CATA:1,2017-05-02T14:30:00Z,30.3085,-88.1395,0.0,1.91,93.5,-999.0,'1111122,1111122,1111122' 
DISL,ioos:station:DISL:CATA:1,2017-05-02T15:00:00Z,30.3085,-88.1395,0.0,2.04,119.2,-999.0,'1111122,1111122,1111122' 
DISL,ioos:station:DISL:CATA:1,2017-05-02T15:30:00Z,30.3085,-88.1395,0.0,2.24,121.4,-999.0,'1111122,1111122,1111122' 
DISL,ioos:station:DISL:CATA:1,2017-05-02T16:00:00Z,30.3085,-88.1395,0.0,1.92,111.6,-999.0,'1111122,1111122,1111122' 
DISL,ioos:station:DISL:CATA:1,2017-05-02T16:30:00Z,30.3085,-88.1395,0.0,2.13,115.7,-999.0,'1111122,1111122,1111122' 
DISL,ioos:station:DISL:CATA:1,2017-05-02T17:00:00Z,30.3085,-88.1395,0.0,2.78,127.2,-999.0,'1111122,1111122,1111122' 
DISL,ioos:station:DISL:CATA:1,2017-05-02T17:30:00Z,30.3085,-88.1395,0.0,2.23,130.8,-999.0,'1111122,1111122,1111122' 
DISL,ioos:station:DISL:CATA:1,2017-05-02T18:00:00Z,30.3085,-88.1395,0.0,2.13,137.0,-999.0,'1111122,1111122,1111122' 
DISL,ioos:station:DISL:CATA:1,2017-05-02T18:30:00Z,30.3085,-88.1395,0.0,2.39,176.9,-999.0,'1111122,1111122,1111122' 
DISL,ioos:station:DISL:CATA:1,2017-05-02T19:00:00Z,30.3085,-88.1395,0.0,4.17,194.5,-999.0,'1111122,1111122,1111122' 
DISL,ioos:station:DISL:CATA:1,2017-05-02T19:30:00Z,30.3085,-88.1395,0.0,4.79,193.2,-999.0,'1111122,1111122,1111122' 
DISL,ioos:station:DISL:CATA:1,2017-05-02T20:00:00Z,30.3085,-88.1395,0.0,3.98,204.1,-999.0,'1111122,1111122,1111122' 
DISL,ioos:station:DISL:CATA:1,2017-05-02T20:30:00Z,30.3085,-88.1395,0.0,4.27,204.7,-999.0,'1111122,1111122,1111122' 
DISL,ioos:station:DISL:CATA:1,2017-05-02T21:00:00Z,30.3085,-88.1395,0.0,4.6,210.0,-999.0,'1111122,1111122,1111122' 
DISL,ioos:station:DISL:CATA:1,2017-05-02T21:30:00Z,30.3085,-88.1395,0.0,4.01,216.0,-999.0,'1111122,1111122,1111122' 
DISL,ioos:station:DISL:CATA:1,2017-05-02T22:00:00Z,30.3085,-88.1395,0.0,3.03,221.7,-999.0,'1111122,1111122,1111122' 
DISL,ioos:station:DISL:CATA:1,2017-05-02T22:30:00Z,30.3085,-88.1395,0.0,3.42,225.9,-999.0,'1111122,1111122,1111122' 
DISL,ioos:station:DISL:CATA:1,2017-05-02T23:00:00Z,30.3085,-88.1395,0.0,4.15,247.2,-999.0,'1111122,1111122,1111122' 
DISL,ioos:station:DISL:CATA:1,2017-05-02T23:30:00Z,30.3085,-88.1395,0.0,3.44,231.3,-999.0,'1111122,1111122,1111122' 
DISL,ioos:station:DISL:CATA:1,2017-05-03T00:00:00Z,30.3085,-88.1395,0.0,3.01,222.9,-999.0,'1111122,1111122,1111122' 
DISL,ioos:station:DISL:CATA:1,2017-05-03T00:30:00Z,30.3085,-88.1395,0.0,3.52,226.7,-999.0,'1111122,1111122,1111122' 
DISL,ioos:station:DISL:CATA:1,2017-05-03T01:00:00Z,30.3085,-88.1395,0.0,3.28,225.9,-999.0,'1111122,1111122,1111122' 
DISL,ioos:station:DISL:CATA:1,2017-05-03T01:30:00Z,30.3085,-88.1395,0.0,3.59,223.3,-999.0,'1111122,1111122,1111122' 
DISL,ioos:station:DISL:CATA:1,2017-05-03T02:00:00Z,30.3085,-88.1395,0.0,3.0,224.0,-999.0,'1111122,1111122,1111122' 
DISL,ioos:station:DISL:CATA:1,2017-05-03T02:30:00Z,30.3085,-88.1395,0.0,2.88,230.5,-999.0,'1111122,1111122,1111122' 
DISL,ioos:station:DISL:CATA:1,2017-05-03T03:00:00Z,30.3085,-88.1395,0.0,3.0,215.3,-999.0,'1111122,1111122,1111122' 
DISL,ioos:station:DISL:CATA:1,2017-05-03T03:30:00Z,30.3085,-88.1395,0.0,2.81,208.3,-999.0,'1111122,1111122,1111122' 
DISL,ioos:station:DISL:CATA:1,2017-05-03T04:00:00Z,30.3085,-88.1395,0.0,3.25,207.8,-999.0,'1111122,1111122,1111122' 
DISL,ioos:station:DISL:CATA:1,2017-05-03T04:30:00Z,30.3085,-88.1395,0.0,3.41,204.3,-999.0,'1111122,1111122,1111122' 
DISL,ioos:station:DISL:CATA:1,2017-05-03T05:00:00Z,30.3085,-88.1395,0.0,4.02,196.6,-999.0,'1111122,1111122,1111122' 
DISL,ioos:station:DISL:CATA:1,2017-05-03T05:30:00Z,30.3085,-88.1395,0.0,4.0,193.9,-999.0,'1111122,1111122,1111122' 
DISL,ioos:station:DISL:CATA:1,2017-05-03T06:00:00Z,30.3085,-88.1395,0.0,3.94,196.8,-999.0,'1111122,1111122,1111122' 
DISL,ioos:station:DISL:CATA:1,2017-05-03T06:30:00Z,30.3085,-88.1395,0.0,2.59,199.4,-999.0,'1111122,1111122,1111122' 
DISL,ioos:station:DISL:CATA:1,2017-05-03T07:00:00Z,30.3085,-88.1395,0.0,1.15,214.6,-999.0,'1111122,1111122,1111122' 
DISL,ioos:station:DISL:CATA:1,2017-05-03T07:30:00Z,30.3085,-88.1395,0.0,0.38,258.2,-999.0,'1111122,1111122,1111122' 
DISL,ioos:station:DISL:CATA:1,2017-05-03T08:00:00Z,30.3085,-88.1395,0.0,0.16,31.79,-999.0,'1111122,1111122,1111122' 
DISL,ioos:station:DISL:CATA:1,2017-05-03T08:30:00Z,30.3085,-88.1395,0.0,1.8,154.6,-999.0,'1111122,1111122,1111122' 
DISL,ioos:station:DISL:CATA:1,2017-05-03T09:00:00Z,30.3085,-88.1395,0.0,1.56,155.0,-999.0,'1111122,1111122,1111122' 
DISL,ioos:station:DISL:CATA:1,2017-05-03T09:30:00Z,30.3085,-88.1395,0.0,1.19,136.4,-999.0,'1111122,1111122,1111122' 
DISL,ioos:station:DISL:CATA:1,2017-05-03T10:00:00Z,30.3085,-88.1395,0.0,1.38,93.3,-999.0,'1111122,1111122,1111122' 
DISL,ioos:station:DISL:CATA:1,2017-05-03T10:30:00Z,30.3085,-88.1395,0.0,3.01,95.9,-999.0,'1111122,1111122,1111122' 
DISL,ioos:station:DISL:CATA:1,2017-05-03T11:00:00Z,30.3085,-88.1395,0.0,3.54,79.27,-999.0,'1111122,1111122,1111122' 
DISL,ioos:station:DISL:CATA:1,2017-05-03T11:30:00Z,30.3085,-88.1395,0.0,3.68,93.0,-999.0,'1111122,1111122,1111122' 
DISL,ioos:station:DISL:CATA:1,2017-05-03T12:00:00Z,30.3085,-88.1395,0.0,4.0,103.0,-999.0,'1111122,1111122,1111122' 
DISL,ioos:station:DISL:CATA:1,2017-05-03T12:30:00Z,30.3085,-88.1395,0.0,4.27,116.0,-999.0,'1111122,1111122,1111122' 
DISL,ioos:station:DISL:CATA:1,2017-05-03T13:00:00Z,30.3085,-88.1395,0.0,4.76,112.8,-999.0,'1111122,1111122,1111122' 
DISL,ioos:station:DISL:CATA:1,2017-05-03T13:30:00Z,30.3085,-88.1395,0.0,5.16,110.9,-999.0,'1111122,1111122,1111122' 
DISL,ioos:station:DISL:CATA:1,2017-05-03T14:00:00Z,30.3085,-88.1395,0.0,5.43,108.8,-999.0,'1111122,1111122,1111122' 
DISL,ioos:station:DISL:CATA:1,2017-05-03T14:30:00Z,30.3085,-88.1395,0.0,4.64,115.0,-999.0,'1111122,1111122,1111122' 
DISL,ioos:station:DISL:CATA:1,2017-05-03T15:00:00Z,30.3085,-88.1395,0.0,6.57,127.1,-999.0,'1111122,1111122,1111122' 
DISL,ioos:station:DISL:CATA:1,2017-05-03T15:30:00Z,30.3085,-88.1395,0.0,7.76,129.3,-999.0,'1111122,1111122,1111122' 
DISL,ioos:station:DISL:CATA:1,2017-05-03T16:00:00Z,30.3085,-88.1395,0.0,6.74,130.4,-999.0,'1111122,1111122,1111122' 
DISL,ioos:station:DISL:CATA:1,2017-05-03T16:30:00Z,30.3085,-88.1395,0.0,6.31,137.1,-999.0,'1111122,1111122,1111122' 
DISL,ioos:station:DISL:CATA:1,2017-05-03T17:00:00Z,30.3085,-88.1395,0.0,7.22,140.1,-999.0,'1111122,1111122,1111122' 
DISL,ioos:station:DISL:CATA:1,2017-05-03T17:30:00Z,30.3085,-88.1395,0.0,6.96,138.0,-999.0,'1111122,1111122,1111122' 
DISL,ioos:station:DISL:CATA:1,2017-05-03T18:00:00Z,30.3085,-88.1395,0.0,6.97,146.4,-999.0,'1111122,1111122,1111122' 
DISL,ioos:station:DISL:CATA:1,2017-05-03T18:30:00Z,30.3085,-88.1395,0.0,5.32,156.2,-999.0,'1111122,1111122,1111122' 
DISL,ioos:station:DISL:CATA:1,2017-05-03T19:00:00Z,30.3085,-88.1395,0.0,7.05,195.9,-999.0,'1111122,1111122,1111122' 
DISL,ioos:station:DISL:CATA:1,2017-05-03T19:30:00Z,30.3085,-88.1395,0.0,9.11,183.9,-999.0,'1111122,1111122,1111122' 
DISL,ioos:station:DISL:CATA:1,2017-05-03T20:00:00Z,30.3085,-88.1395,0.0,6.46,112.3,-999.0,'1111122,1111122,1111122' 
DISL,ioos:station:DISL:CATA:1,2017-05-03T20:30:00Z,30.3085,-88.1395,0.0,6.28,106.9,-999.0,'1111122,1111122,1111122' 
DISL,ioos:station:DISL:CATA:1,2017-05-03T21:00:00Z,30.3085,-88.1395,0.0,3.68,273.3,-999.0,'1111122,1111122,1111122' 
DISL,ioos:station:DISL:CATA:1,2017-05-03T21:30:00Z,30.3085,-88.1395,0.0,4.8,299.9,-999.0,'1111122,1111122,1111122' 
DISL,ioos:station:DISL:CATA:1,2017-05-03T22:00:00Z,30.3085,-88.1395,0.0,8.52,309.7,-999.0,'1111122,1111122,1111122' 
DISL,ioos:station:DISL:CATA:1,2017-05-03T22:30:00Z,30.3085,-88.1395,0.0,12.47,288.6,-999.0,'1111122,1111122,1111122' 
DISL,ioos:station:DISL:CATA:1,2017-05-03T23:00:00Z,30.3085,-88.1395,0.0,6.17,250.5,-999.0,'1111122,1111122,1111122' 
DISL,ioos:station:DISL:CATA:1,2017-05-03T23:30:00Z,30.3085,-88.1395,0.0,7.73,129.1,-999.0,'1111122,1111122,1111122' 
DISL,ioos:station:DISL:CATA:1,2017-05-04T00:00:00Z,30.3085,-88.1395,0.0,13.78,127.0,-999.0,'1111122,1111122,1111122' 
DISL,ioos:station:DISL:CATA:1,2017-05-04T00:30:00Z,30.3085,-88.1395,0.0,14.16,137.5,-999.0,'1111122,1111122,1111122' 
DISL,ioos:station:DISL:CATA:1,2017-05-04T01:00:00Z,30.3085,-88.1395,0.0,12.63,136.6,-999.0,'1111122,1111122,1111122' 
DISL,ioos:station:DISL:CATA:1,2017-05-04T01:30:00Z,30.3085,-88.1395,0.0,10.57,137.8,-999.0,'1111122,1111122,1111122' 
DISL,ioos:station:DISL:CATA:1,2017-05-04T02:00:00Z,30.3085,-88.1395,0.0,10.31,130.7,-999.0,'1111122,1111122,1111122' 
DISL,ioos:station:DISL:CATA:1,2017-05-04T02:30:00Z,30.3085,-88.1395,0.0,9.2,137.7,-999.0,'1111122,1111122,1111122' 
DISL,ioos:station:DISL:CATA:1,2017-05-04T03:00:00Z,30.3085,-88.1395,0.0,6.5,139.6,-999.0,'1111122,1111122,1111122' 
DISL,ioos:station:DISL:CATA:1,2017-05-04T03:30:00Z,30.3085,-88.1395,0.0,3.99,8.36,-999.0,'1111122,1111122,1111122' 
DISL,ioos:station:DISL:CATA:1,2017-05-04T04:00:00Z,30.3085,-88.1395,0.0,4.74,34.15,-999.0,'1111122,1111122,1111122' 
DISL,ioos:station:DISL:CATA:1,2017-05-04T04:30:00Z,30.3085,-88.1395,0.0,6.06,358.8,-999.0,'1111122,1111122,1111122' 
DISL,ioos:station:DISL:CATA:1,2017-05-04T05:00:00Z,30.3085,-88.1395,0.0,6.14,343.9,-999.0,'1111122,1111122,1111122' 
DISL,ioos:station:DISL:CATA:1,2017-05-04T05:30:00Z,30.3085,-88.1395,0.0,4.9,73.32,-999.0,'1111122,1111122,1111122' 
DISL,ioos:station:DISL:CATA:1,2017-05-04T06:00:00Z,30.3085,-88.1395,0.0,7.48,334.2,-999.0,'1111122,1111122,1111122' 
DISL,ioos:station:DISL:CATA:1,2017-05-04T06:30:00Z,30.3085,-88.1395,0.0,5.51,0.108,-999.0,'1111122,1111122,1111122' 
DISL,ioos:station:DISL:CATA:1,2017-05-04T07:00:00Z,30.3085,-88.1395,0.0,4.37,66.67,-999.0,'1111122,1111122,1111122' 
DISL,ioos:station:DISL:CATA:1,2017-05-04T07:30:00Z,30.3085,-88.1395,0.0,5.38,68.63,-999.0,'1111122,1111122,1111122' 
DISL,ioos:station:DISL:CATA:1,2017-05-04T08:00:00Z,30.3085,-88.1395,0.0,6.86,59.32,-999.0,'1111122,1111122,1111122' 
DISL,ioos:station:DISL:CATA:1,2017-05-04T08:30:00Z,30.3085,-88.1395,0.0,5.01,63.12,-999.0,'1111122,1111122,1111122' 
DISL,ioos:station:DISL:CATA:1,2017-05-04T09:00:00Z,30.3085,-88.1395,0.0,4.31,48.0,-999.0,'1111122,1111122,1111122' 
DISL,ioos:station:DISL:CATA:1,2017-05-04T09:30:00Z,30.3085,-88.1395,0.0,6.65,72.63,-999.0,'1111122,1111122,1111122' 
DISL,ioos:station:DISL:CATA:1,2017-05-04T10:00:00Z,30.3085,-88.1395,0.0,6.25,77.54,-999.0,'1111122,1111122,1111122' 
DISL,ioos:station:DISL:CATA:1,2017-05-04T10:30:00Z,30.3085,-88.1395,0.0,5.42,101.9,-999.0,'1111122,1111122,1111122' 
DISL,ioos:station:DISL:CATA:1,2017-05-04T11:00:00Z,30.3085,-88.1395,0.0,5.69,123.3,-999.0,'1111122,1111122,1111122' 
DISL,ioos:station:DISL:CATA:1,2017-05-04T11:30:00Z,30.3085,-88.1395,0.0,10.31,133.9,-999.0,'1111122,1111122,1111122' 
DISL,ioos:station:DISL:CATA:1,2017-05-04T12:00:00Z,30.3085,-88.1395,0.0,13.17,146.4,-999.0,'1111122,1111122,1111122' 
DISL,ioos:station:DISL:CATA:1,2017-05-04T12:30:00Z,30.3085,-88.1395,0.0,13.43,149.3,-999.0,'1111122,1111122,1111122' 
DISL,ioos:station:DISL:CATA:1,2017-05-04T13:00:00Z,30.3085,-88.1395,0.0,8.41,172.7,-999.0,'1111122,1111122,1111122' 
DISL,ioos:station:DISL:CATA:1,2017-05-04T13:30:00Z,30.3085,-88.1395,0.0,7.67,177.3,-999.0,'1111122,1111122,1111122' 
DISL,ioos:station:DISL:CATA:1,2017-05-04T14:00:00Z,30.3085,-88.1395,0.0,8.07,205.3,-999.0,'1111122,1111122,1111122' 
DISL,ioos:station:DISL:CATA:1,2017-05-04T14:30:00Z,30.3085,-88.1395,0.0,9.06,221.4,-999.0,'1111122,1111122,1111122' 
DISL,ioos:station:DISL:CATA:1,2017-05-04T15:00:00Z,30.3085,-88.1395,0.0,9.74,224.8,-999.0,'1111122,1111122,1111122' 
DISL,ioos:station:DISL:CATA:1,2017-05-04T15:30:00Z,30.3085,-88.1395,0.0,10.42,248.9,-999.0,'1111122,1111122,1111122' 
DISL,ioos:station:DISL:CATA:1,2017-05-04T16:00:00Z,30.3085,-88.1395,0.0,9.38,272.6,-999.0,'1111122,1111122,1111122' 
DISL,ioos:station:DISL:CATA:1,2017-05-04T16:30:00Z,30.3085,-88.1395,0.0,9.55,274.4,-999.0,'1111122,1111122,1111122' 
DISL,ioos:station:DISL:CATA:1,2017-05-04T17:00:00Z,30.3085,-88.1395,0.0,8.18,277.6,-999.0,'1111122,1111122,1111122' 
DISL,ioos:station:DISL:CATA:1,2017-05-04T17:30:00Z,30.3085,-88.1395,0.0,7.73,262.6,-999.0,'1111122,1111122,1111122' 
DISL,ioos:station:DISL:CATA:1,2017-05-04T18:00:00Z,30.3085,-88.1395,0.0,6.45,260.6,-999.0,'1111122,1111122,1111122' 
DISL,ioos:station:DISL:CATA:1,2017-05-04T18:30:00Z,30.3085,-88.1395,0.0,7.07,254.0,-999.0,'1111122,1111122,1111122' 
DISL,ioos:station:DISL:CATA:1,2017-05-04T19:00:00Z,30.3085,-88.1395,0.0,6.2,214.2,-999.0,'1111122,1111122,1111122' 
DISL,ioos:station:DISL:CATA:1,2017-05-04T19:30:00Z,30.3085,-88.1395,0.0,11.0,264.1,-999.0,'1111122,1111122,1111122' 
DISL,ioos:station:DISL:CATA:1,2017-05-04T20:00:00Z,30.3085,-88.1395,0.0,11.53,301.6,-999.0,'1111122,1111122,1111122' 
DISL,ioos:station:DISL:CATA:1,2017-05-04T20:30:00Z,30.3085,-88.1395,0.0,10.53,298.0,-999.0,'1111122,1111122,1111122' 
DISL,ioos:station:DISL:CATA:1,2017-05-04T21:00:00Z,30.3085,-88.1395,0.0,10.44,304.4,-999.0,'1111122,1111122,1111122' 
DISL,ioos:station:DISL:CATA:1,2017-05-04T21:30:00Z,30.3085,-88.1395,0.0,9.78,303.4,-999.0,'1111122,1111122,1111122' 
DISL,ioos:station:DISL:CATA:1,2017-05-04T22:00:00Z,30.3085,-88.1395,0.0,10.54,311.4,-999.0,'1111122,1111122,1111122' 
DISL,ioos:station:DISL:CATA:1,2017-05-04T22:30:00Z,30.3085,-88.1395,0.0,11.45,316.4,-999.0,'1111122,1111122,1111122' 
DISL,ioos:station:DISL:CATA:1,2017-05-04T23:00:00Z,30.3085,-88.1395,0.0,11.73,312.1,-999.0,'1111122,1111122,1111122' 
DISL,ioos:station:DISL:CATA:1,2017-05-04T23:30:00Z,30.3085,-88.1395,0.0,10.66,317.0,-999.0,'1111122,1111122,1111122' 
DISL,ioos:station:DISL:CATA:1,2017-05-05T00:00:00Z,30.3085,-88.1395,0.0,9.7,321.6,-999.0,'1111122,1111122,1111122' 
DISL,ioos:station:DISL:CATA:1,2017-05-05T00:30:00Z,30.3085,-88.1395,0.0,9.51,315.0,-999.0,'1111122,1111122,1111122' 
DISL,ioos:station:DISL:CATA:1,2017-05-05T01:00:00Z,30.3085,-88.1395,0.0,11.9,309.6,-999.0,'1111122,1111122,1111122' 
DISL,ioos:station:DISL:CATA:1,2017-05-05T01:30:00Z,30.3085,-88.1395,0.0,10.1,310.2,-999.0,'1111122,1111122,1111122' 
DISL,ioos:station:DISL:CATA:1,2017-05-05T02:00:00Z,30.3085,-88.1395,0.0,9.83,309.1,-999.0,'1111122,1111122,1111122' 
DISL,ioos:station:DISL:CATA:1,2017-05-05T02:30:00Z,30.3085,-88.1395,0.0,12.94,307.1,-999.0,'1111122,1111122,1111122' 
DISL,ioos:station:DISL:CATA:1,2017-05-05T03:00:00Z,30.3085,-88.1395,0.0,12.3,309.2,-999.0,'1111122,1111122,1111122' 
DISL,ioos:station:DISL:CATA:1,2017-05-05T03:30:00Z,30.3085,-88.1395,0.0,9.77,314.8,-999.0,'1111122,1111122,1111122' 
DISL,ioos:station:DISL:CATA:1,2017-05-05T04:00:00Z,30.3085,-88.1395,0.0,10.65,321.4,-999.0,'1111122,1111122,1111122' 
DISL,ioos:station:DISL:CATA:1,2017-05-05T04:30:00Z,30.3085,-88.1395,0.0,11.58,322.4,-999.0,'1111122,1111122,1111122' 
DISL,ioos:station:DISL:CATA:1,2017-05-05T05:00:00Z,30.3085,-88.1395,0.0,11.5,321.1,-999.0,'1111122,1111122,1111122' 
DISL,ioos:station:DISL:CATA:1,2017-05-05T05:30:00Z,30.3085,-88.1395,0.0,10.14,321.5,-999.0,'1111122,1111122,1111122' 